<?xml version="1.0" encoding="UTF-8" standalone="no" ?>
<gpx xmlns="http://www.topografix.com/GPX/1/1" xmlns:xsi="http://www.w3.org/2001/XMLSchema-instance" xsi:schemaLocation="http://www.topografix.com/GPX/1/1 http://www.topografix.com/GPX/1/1/gpx.xsd" version="1.1" creator="VisuGPX - https://www.visugpx.com">
  <metadata>
    <name>ILE DE RE - VTT - Un aller-retour de Sainte Marie de Ré à Loix via Saint Martin de Ré.</name>
    <desc><![CDATA[Balade, problème Gps au départ seul le retour a été tracé. Multiplier tout par deux pour aller-retour.]]></desc>
  </metadata>
  <wpt lat="46.17257" lon="-1.35693">
    <ele>2.769531</ele>
    <name><![CDATA[001]]></name>
    <desc><![CDATA[18-AOU-14 10:45:34]]></desc>
    <cmt><![CDATA[18-AOU-14 10:45:34]]></cmt>
  </wpt>
  <wpt lat="46.21604" lon="-1.43872">
    <ele>-22.464966</ele>
    <name><![CDATA[002]]></name>
    <desc><![CDATA[20-AOU-14 17:20:46]]></desc>
    <cmt><![CDATA[20-AOU-14 17:20:46]]></cmt>
  </wpt>
  <trk>
    <name><![CDATA[ACTIVE LOG 003]]></name>
    <trkseg>
      <trkpt lat="46.21604" lon="-1.43871">
        <ele>-33.508911</ele>
        <time>2014-08-20T15:20:31Z</time>
      </trkpt>
      <trkpt lat="46.21604" lon="-1.43871">
        <ele>-33.508911</ele>
        <time>2014-08-20T15:20:32Z</time>
      </trkpt>
      <trkpt lat="46.21604" lon="-1.43871">
        <ele>-32.547485</ele>
        <time>2014-08-20T15:20:33Z</time>
      </trkpt>
      <trkpt lat="46.21604" lon="-1.43872">
        <ele>-30.144165</ele>
        <time>2014-08-20T15:20:36Z</time>
      </trkpt>
      <trkpt lat="46.21604" lon="-1.43872">
        <ele>-26.29895</ele>
        <time>2014-08-20T15:20:40Z</time>
      </trkpt>
      <trkpt lat="46.21604" lon="-1.43872">
        <ele>-23.414917</ele>
        <time>2014-08-20T15:20:44Z</time>
      </trkpt>
      <trkpt lat="46.21604" lon="-1.43872">
        <ele>-22.453613</ele>
        <time>2014-08-20T15:20:46Z</time>
      </trkpt>
      <trkpt lat="46.21604" lon="-1.43872">
        <ele>-19.088989</ele>
        <time>2014-08-20T15:20:50Z</time>
      </trkpt>
      <trkpt lat="46.21604" lon="-1.43872">
        <ele>-17.647095</ele>
        <time>2014-08-20T15:20:54Z</time>
      </trkpt>
      <trkpt lat="46.21604" lon="-1.43871">
        <ele>-14.282471</ele>
        <time>2014-08-20T15:21:00Z</time>
      </trkpt>
      <trkpt lat="46.21602" lon="-1.43873">
        <ele>-10.917847</ele>
        <time>2014-08-20T15:21:09Z</time>
      </trkpt>
      <trkpt lat="46.21602" lon="-1.43873">
        <ele>-11.398438</ele>
        <time>2014-08-20T15:21:10Z</time>
      </trkpt>
      <trkpt lat="46.21603" lon="-1.43873">
        <ele>-8.514648</ele>
        <time>2014-08-20T15:21:15Z</time>
      </trkpt>
      <trkpt lat="46.21603" lon="-1.43873">
        <ele>-5.630493</ele>
        <time>2014-08-20T15:21:27Z</time>
      </trkpt>
      <trkpt lat="46.21603" lon="-1.43874">
        <ele>-2.265991</ele>
        <time>2014-08-20T15:21:42Z</time>
      </trkpt>
      <trkpt lat="46.21604" lon="-1.43874">
        <ele>-1.304688</ele>
        <time>2014-08-20T15:21:50Z</time>
      </trkpt>
      <trkpt lat="46.21604" lon="-1.43874">
        <ele>0.137451</ele>
        <time>2014-08-20T15:22:07Z</time>
      </trkpt>
      <trkpt lat="46.21604" lon="-1.43873">
        <ele>1.098633</ele>
        <time>2014-08-20T15:22:21Z</time>
      </trkpt>
      <trkpt lat="46.21605" lon="-1.43875">
        <ele>1.098633</ele>
        <time>2014-08-20T15:22:50Z</time>
      </trkpt>
      <trkpt lat="46.21606" lon="-1.43875">
        <ele>0.618042</ele>
        <time>2014-08-20T15:22:52Z</time>
      </trkpt>
      <trkpt lat="46.2162" lon="-1.4389">
        <ele>0.618042</ele>
        <time>2014-08-20T15:23:03Z</time>
      </trkpt>
      <trkpt lat="46.21649" lon="-1.43906">
        <ele>-0.824097</ele>
        <time>2014-08-20T15:23:16Z</time>
      </trkpt>
      <trkpt lat="46.21654" lon="-1.43905">
        <ele>0.618042</ele>
        <time>2014-08-20T15:23:18Z</time>
      </trkpt>
      <trkpt lat="46.21663" lon="-1.43917">
        <ele>0.618042</ele>
        <time>2014-08-20T15:23:22Z</time>
      </trkpt>
      <trkpt lat="46.21684" lon="-1.43969">
        <ele>0.618042</ele>
        <time>2014-08-20T15:23:36Z</time>
      </trkpt>
      <trkpt lat="46.21688" lon="-1.43975">
        <ele>0.137451</ele>
        <time>2014-08-20T15:23:38Z</time>
      </trkpt>
      <trkpt lat="46.21689" lon="-1.43978">
        <ele>0.137451</ele>
        <time>2014-08-20T15:23:40Z</time>
      </trkpt>
      <trkpt lat="46.2167" lon="-1.43999">
        <ele>-0.343384</ele>
        <time>2014-08-20T15:23:51Z</time>
      </trkpt>
      <trkpt lat="46.21659" lon="-1.43989">
        <ele>-0.343384</ele>
        <time>2014-08-20T15:23:56Z</time>
      </trkpt>
      <trkpt lat="46.21639" lon="-1.43946">
        <ele>0.137451</ele>
        <time>2014-08-20T15:24:08Z</time>
      </trkpt>
      <trkpt lat="46.21635" lon="-1.43943">
        <ele>0.137451</ele>
        <time>2014-08-20T15:24:11Z</time>
      </trkpt>
      <trkpt lat="46.21625" lon="-1.43947">
        <ele>-0.824097</ele>
        <time>2014-08-20T15:24:19Z</time>
      </trkpt>
      <trkpt lat="46.21622" lon="-1.4394">
        <ele>-1.304688</ele>
        <time>2014-08-20T15:24:22Z</time>
      </trkpt>
      <trkpt lat="46.21595" lon="-1.43934">
        <ele>-1.304688</ele>
        <time>2014-08-20T15:24:38Z</time>
      </trkpt>
      <trkpt lat="46.21591" lon="-1.43937">
        <ele>0.618042</ele>
        <time>2014-08-20T15:24:41Z</time>
      </trkpt>
      <trkpt lat="46.2158" lon="-1.43954">
        <ele>1.579346</ele>
        <time>2014-08-20T15:24:49Z</time>
      </trkpt>
      <trkpt lat="46.21568" lon="-1.43949">
        <ele>0.618042</ele>
        <time>2014-08-20T15:24:58Z</time>
      </trkpt>
      <trkpt lat="46.21568" lon="-1.4395">
        <ele>1.579346</ele>
        <time>2014-08-20T15:25:34Z</time>
      </trkpt>
      <trkpt lat="46.21567" lon="-1.4395">
        <ele>1.579346</ele>
        <time>2014-08-20T15:25:48Z</time>
      </trkpt>
      <trkpt lat="46.21552" lon="-1.43943">
        <ele>1.579346</ele>
        <time>2014-08-20T15:26:01Z</time>
      </trkpt>
      <trkpt lat="46.21508" lon="-1.43915">
        <ele>-0.343384</ele>
        <time>2014-08-20T15:26:19Z</time>
      </trkpt>
      <trkpt lat="46.21474" lon="-1.43903">
        <ele>3.02124</ele>
        <time>2014-08-20T15:26:31Z</time>
      </trkpt>
      <trkpt lat="46.21433" lon="-1.43928">
        <ele>2.540649</ele>
        <time>2014-08-20T15:26:45Z</time>
      </trkpt>
      <trkpt lat="46.21421" lon="-1.43995">
        <ele>2.060059</ele>
        <time>2014-08-20T15:26:59Z</time>
      </trkpt>
      <trkpt lat="46.21421" lon="-1.44087">
        <ele>1.579346</ele>
        <time>2014-08-20T15:27:17Z</time>
      </trkpt>
      <trkpt lat="46.21396" lon="-1.44091">
        <ele>1.098633</ele>
        <time>2014-08-20T15:27:26Z</time>
      </trkpt>
      <trkpt lat="46.21337" lon="-1.44081">
        <ele>0.137451</ele>
        <time>2014-08-20T15:27:45Z</time>
      </trkpt>
      <trkpt lat="46.21327" lon="-1.44079">
        <ele>1.579346</ele>
        <time>2014-08-20T15:27:48Z</time>
      </trkpt>
      <trkpt lat="46.213" lon="-1.44077">
        <ele>0.618042</ele>
        <time>2014-08-20T15:27:58Z</time>
      </trkpt>
      <trkpt lat="46.21297" lon="-1.44048">
        <ele>0.618042</ele>
        <time>2014-08-20T15:28:06Z</time>
      </trkpt>
      <trkpt lat="46.21317" lon="-1.4395">
        <ele>0.137451</ele>
        <time>2014-08-20T15:28:25Z</time>
      </trkpt>
      <trkpt lat="46.21339" lon="-1.43846">
        <ele>0.137451</ele>
        <time>2014-08-20T15:28:44Z</time>
      </trkpt>
      <trkpt lat="46.21333" lon="-1.43807">
        <ele>-0.343384</ele>
        <time>2014-08-20T15:28:51Z</time>
      </trkpt>
      <trkpt lat="46.21298" lon="-1.43743">
        <ele>-0.343384</ele>
        <time>2014-08-20T15:29:06Z</time>
      </trkpt>
      <trkpt lat="46.21263" lon="-1.43777">
        <ele>1.098633</ele>
        <time>2014-08-20T15:29:19Z</time>
      </trkpt>
      <trkpt lat="46.2123" lon="-1.43814">
        <ele>1.098633</ele>
        <time>2014-08-20T15:29:33Z</time>
      </trkpt>
      <trkpt lat="46.21194" lon="-1.43856">
        <ele>1.579346</ele>
        <time>2014-08-20T15:29:49Z</time>
      </trkpt>
      <trkpt lat="46.21183" lon="-1.43867">
        <ele>2.060059</ele>
        <time>2014-08-20T15:29:53Z</time>
      </trkpt>
      <trkpt lat="46.21162" lon="-1.43894">
        <ele>2.060059</ele>
        <time>2014-08-20T15:30:00Z</time>
      </trkpt>
      <trkpt lat="46.21148" lon="-1.43908">
        <ele>2.540649</ele>
        <time>2014-08-20T15:30:04Z</time>
      </trkpt>
      <trkpt lat="46.21105" lon="-1.43955">
        <ele>2.060059</ele>
        <time>2014-08-20T15:30:17Z</time>
      </trkpt>
      <trkpt lat="46.21096" lon="-1.43959">
        <ele>0.618042</ele>
        <time>2014-08-20T15:30:19Z</time>
      </trkpt>
      <trkpt lat="46.21082" lon="-1.43959">
        <ele>-0.824097</ele>
        <time>2014-08-20T15:30:22Z</time>
      </trkpt>
      <trkpt lat="46.21012" lon="-1.4394">
        <ele>0.137451</ele>
        <time>2014-08-20T15:30:38Z</time>
      </trkpt>
      <trkpt lat="46.20995" lon="-1.43943">
        <ele>1.579346</ele>
        <time>2014-08-20T15:30:42Z</time>
      </trkpt>
      <trkpt lat="46.2095" lon="-1.43982">
        <ele>0.618042</ele>
        <time>2014-08-20T15:30:54Z</time>
      </trkpt>
      <trkpt lat="46.20948" lon="-1.4401">
        <ele>1.579346</ele>
        <time>2014-08-20T15:30:59Z</time>
      </trkpt>
      <trkpt lat="46.20949" lon="-1.44046">
        <ele>0.618042</ele>
        <time>2014-08-20T15:31:05Z</time>
      </trkpt>
      <trkpt lat="46.20909" lon="-1.44118">
        <ele>0.618042</ele>
        <time>2014-08-20T15:31:21Z</time>
      </trkpt>
      <trkpt lat="46.20898" lon="-1.44104">
        <ele>0.618042</ele>
        <time>2014-08-20T15:31:25Z</time>
      </trkpt>
      <trkpt lat="46.20891" lon="-1.4409">
        <ele>0.618042</ele>
        <time>2014-08-20T15:31:28Z</time>
      </trkpt>
      <trkpt lat="46.20875" lon="-1.44086">
        <ele>1.098633</ele>
        <time>2014-08-20T15:31:32Z</time>
      </trkpt>
      <trkpt lat="46.20844" lon="-1.44068">
        <ele>-0.343384</ele>
        <time>2014-08-20T15:31:43Z</time>
      </trkpt>
      <trkpt lat="46.20822" lon="-1.44002">
        <ele>0.137451</ele>
        <time>2014-08-20T15:32:02Z</time>
      </trkpt>
      <trkpt lat="46.2079" lon="-1.43926">
        <ele>0.618042</ele>
        <time>2014-08-20T15:32:21Z</time>
      </trkpt>
      <trkpt lat="46.20759" lon="-1.43855">
        <ele>0.618042</ele>
        <time>2014-08-20T15:32:39Z</time>
      </trkpt>
      <trkpt lat="46.20716" lon="-1.43756">
        <ele>1.098633</ele>
        <time>2014-08-20T15:33:01Z</time>
      </trkpt>
      <trkpt lat="46.20682" lon="-1.43681">
        <ele>0.618042</ele>
        <time>2014-08-20T15:33:18Z</time>
      </trkpt>
      <trkpt lat="46.20647" lon="-1.43594">
        <ele>0.137451</ele>
        <time>2014-08-20T15:33:34Z</time>
      </trkpt>
      <trkpt lat="46.20639" lon="-1.4358">
        <ele>0.137451</ele>
        <time>2014-08-20T15:33:37Z</time>
      </trkpt>
      <trkpt lat="46.20596" lon="-1.43465">
        <ele>1.098633</ele>
        <time>2014-08-20T15:33:59Z</time>
      </trkpt>
      <trkpt lat="46.20559" lon="-1.43361">
        <ele>0.137451</ele>
        <time>2014-08-20T15:34:20Z</time>
      </trkpt>
      <trkpt lat="46.20525" lon="-1.43273">
        <ele>0.137451</ele>
        <time>2014-08-20T15:34:39Z</time>
      </trkpt>
      <trkpt lat="46.20492" lon="-1.43207">
        <ele>0.618042</ele>
        <time>2014-08-20T15:34:53Z</time>
      </trkpt>
      <trkpt lat="46.20498" lon="-1.43161">
        <ele>1.098633</ele>
        <time>2014-08-20T15:35:02Z</time>
      </trkpt>
      <trkpt lat="46.20507" lon="-1.43133">
        <ele>0.618042</ele>
        <time>2014-08-20T15:35:07Z</time>
      </trkpt>
      <trkpt lat="46.20508" lon="-1.43073">
        <ele>0.618042</ele>
        <time>2014-08-20T15:35:17Z</time>
      </trkpt>
      <trkpt lat="46.20503" lon="-1.4305">
        <ele>0.618042</ele>
        <time>2014-08-20T15:35:21Z</time>
      </trkpt>
      <trkpt lat="46.20455" lon="-1.42953">
        <ele>0.618042</ele>
        <time>2014-08-20T15:35:41Z</time>
      </trkpt>
      <trkpt lat="46.20406" lon="-1.42905">
        <ele>0.618042</ele>
        <time>2014-08-20T15:35:59Z</time>
      </trkpt>
      <trkpt lat="46.20363" lon="-1.42856">
        <ele>0.137451</ele>
        <time>2014-08-20T15:36:14Z</time>
      </trkpt>
      <trkpt lat="46.20354" lon="-1.42837">
        <ele>1.098633</ele>
        <time>2014-08-20T15:36:19Z</time>
      </trkpt>
      <trkpt lat="46.20365" lon="-1.42799">
        <ele>2.540649</ele>
        <time>2014-08-20T15:36:29Z</time>
      </trkpt>
      <trkpt lat="46.2037" lon="-1.42789">
        <ele>2.540649</ele>
        <time>2014-08-20T15:36:32Z</time>
      </trkpt>
      <trkpt lat="46.20419" lon="-1.42792">
        <ele>3.02124</ele>
        <time>2014-08-20T15:36:47Z</time>
      </trkpt>
      <trkpt lat="46.20473" lon="-1.42807">
        <ele>4.463257</ele>
        <time>2014-08-20T15:37:02Z</time>
      </trkpt>
      <trkpt lat="46.2049" lon="-1.42833">
        <ele>3.02124</ele>
        <time>2014-08-20T15:37:08Z</time>
      </trkpt>
      <trkpt lat="46.20516" lon="-1.42852">
        <ele>2.540649</ele>
        <time>2014-08-20T15:37:15Z</time>
      </trkpt>
      <trkpt lat="46.20585" lon="-1.42829">
        <ele>2.540649</ele>
        <time>2014-08-20T15:37:34Z</time>
      </trkpt>
      <trkpt lat="46.20586" lon="-1.42824">
        <ele>2.060059</ele>
        <time>2014-08-20T15:37:35Z</time>
      </trkpt>
      <trkpt lat="46.20592" lon="-1.42743">
        <ele>1.579346</ele>
        <time>2014-08-20T15:37:49Z</time>
      </trkpt>
      <trkpt lat="46.20576" lon="-1.42701">
        <ele>3.02124</ele>
        <time>2014-08-20T15:37:59Z</time>
      </trkpt>
      <trkpt lat="46.20527" lon="-1.42648">
        <ele>2.540649</ele>
        <time>2014-08-20T15:38:15Z</time>
      </trkpt>
      <trkpt lat="46.205" lon="-1.42644">
        <ele>3.501953</ele>
        <time>2014-08-20T15:38:24Z</time>
      </trkpt>
      <trkpt lat="46.20485" lon="-1.42652">
        <ele>3.02124</ele>
        <time>2014-08-20T15:38:29Z</time>
      </trkpt>
      <trkpt lat="46.20477" lon="-1.42628">
        <ele>2.060059</ele>
        <time>2014-08-20T15:38:37Z</time>
      </trkpt>
      <trkpt lat="46.20457" lon="-1.4254">
        <ele>2.540649</ele>
        <time>2014-08-20T15:38:55Z</time>
      </trkpt>
      <trkpt lat="46.20463" lon="-1.42519">
        <ele>2.060059</ele>
        <time>2014-08-20T15:38:59Z</time>
      </trkpt>
      <trkpt lat="46.20485" lon="-1.42439">
        <ele>3.02124</ele>
        <time>2014-08-20T15:39:15Z</time>
      </trkpt>
      <trkpt lat="46.20474" lon="-1.42345">
        <ele>2.540649</ele>
        <time>2014-08-20T15:39:32Z</time>
      </trkpt>
      <trkpt lat="46.20455" lon="-1.42191">
        <ele>3.02124</ele>
        <time>2014-08-20T15:39:57Z</time>
      </trkpt>
      <trkpt lat="46.20451" lon="-1.42067">
        <ele>2.540649</ele>
        <time>2014-08-20T15:40:17Z</time>
      </trkpt>
      <trkpt lat="46.2045" lon="-1.41965">
        <ele>2.060059</ele>
        <time>2014-08-20T15:40:34Z</time>
      </trkpt>
      <trkpt lat="46.20452" lon="-1.41893">
        <ele>1.579346</ele>
        <time>2014-08-20T15:40:46Z</time>
      </trkpt>
      <trkpt lat="46.20433" lon="-1.41759">
        <ele>2.060059</ele>
        <time>2014-08-20T15:41:08Z</time>
      </trkpt>
      <trkpt lat="46.20434" lon="-1.41703">
        <ele>2.540649</ele>
        <time>2014-08-20T15:41:17Z</time>
      </trkpt>
      <trkpt lat="46.20442" lon="-1.4163">
        <ele>0.618042</ele>
        <time>2014-08-20T15:41:29Z</time>
      </trkpt>
      <trkpt lat="46.20449" lon="-1.41608">
        <ele>1.579346</ele>
        <time>2014-08-20T15:41:33Z</time>
      </trkpt>
      <trkpt lat="46.20451" lon="-1.41583">
        <ele>0.618042</ele>
        <time>2014-08-20T15:41:37Z</time>
      </trkpt>
      <trkpt lat="46.20451" lon="-1.4157">
        <ele>0.618042</ele>
        <time>2014-08-20T15:41:39Z</time>
      </trkpt>
      <trkpt lat="46.20432" lon="-1.41478">
        <ele>1.098633</ele>
        <time>2014-08-20T15:41:54Z</time>
      </trkpt>
      <trkpt lat="46.20431" lon="-1.41459">
        <ele>1.579346</ele>
        <time>2014-08-20T15:41:57Z</time>
      </trkpt>
      <trkpt lat="46.20449" lon="-1.41352">
        <ele>1.098633</ele>
        <time>2014-08-20T15:42:15Z</time>
      </trkpt>
      <trkpt lat="46.20449" lon="-1.41329">
        <ele>1.098633</ele>
        <time>2014-08-20T15:42:19Z</time>
      </trkpt>
      <trkpt lat="46.20445" lon="-1.41298">
        <ele>0.618042</ele>
        <time>2014-08-20T15:42:24Z</time>
      </trkpt>
      <trkpt lat="46.20433" lon="-1.41253">
        <ele>1.098633</ele>
        <time>2014-08-20T15:42:32Z</time>
      </trkpt>
      <trkpt lat="46.20405" lon="-1.41157">
        <ele>0.618042</ele>
        <time>2014-08-20T15:42:50Z</time>
      </trkpt>
      <trkpt lat="46.20374" lon="-1.41044">
        <ele>0.618042</ele>
        <time>2014-08-20T15:43:10Z</time>
      </trkpt>
      <trkpt lat="46.20342" lon="-1.40938">
        <ele>1.098633</ele>
        <time>2014-08-20T15:43:28Z</time>
      </trkpt>
      <trkpt lat="46.2032" lon="-1.40815">
        <ele>2.060059</ele>
        <time>2014-08-20T15:43:48Z</time>
      </trkpt>
      <trkpt lat="46.2032" lon="-1.40693">
        <ele>3.02124</ele>
        <time>2014-08-20T15:44:07Z</time>
      </trkpt>
      <trkpt lat="46.20308" lon="-1.40583">
        <ele>2.060059</ele>
        <time>2014-08-20T15:44:24Z</time>
      </trkpt>
      <trkpt lat="46.20296" lon="-1.4046">
        <ele>3.02124</ele>
        <time>2014-08-20T15:44:43Z</time>
      </trkpt>
      <trkpt lat="46.20303" lon="-1.40367">
        <ele>3.501953</ele>
        <time>2014-08-20T15:44:59Z</time>
      </trkpt>
      <trkpt lat="46.20304" lon="-1.40285">
        <ele>3.501953</ele>
        <time>2014-08-20T15:45:15Z</time>
      </trkpt>
      <trkpt lat="46.20301" lon="-1.40186">
        <ele>3.02124</ele>
        <time>2014-08-20T15:45:32Z</time>
      </trkpt>
      <trkpt lat="46.20308" lon="-1.40089">
        <ele>2.540649</ele>
        <time>2014-08-20T15:45:49Z</time>
      </trkpt>
      <trkpt lat="46.20318" lon="-1.4003">
        <ele>3.02124</ele>
        <time>2014-08-20T15:46:03Z</time>
      </trkpt>
      <trkpt lat="46.20321" lon="-1.39942">
        <ele>3.02124</ele>
        <time>2014-08-20T15:46:20Z</time>
      </trkpt>
      <trkpt lat="46.20327" lon="-1.39856">
        <ele>4.463257</ele>
        <time>2014-08-20T15:46:38Z</time>
      </trkpt>
      <trkpt lat="46.20341" lon="-1.39766">
        <ele>4.943848</ele>
        <time>2014-08-20T15:46:54Z</time>
      </trkpt>
      <trkpt lat="46.20343" lon="-1.39754">
        <ele>5.424561</ele>
        <time>2014-08-20T15:46:56Z</time>
      </trkpt>
      <trkpt lat="46.20336" lon="-1.39644">
        <ele>4.943848</ele>
        <time>2014-08-20T15:47:15Z</time>
      </trkpt>
      <trkpt lat="46.20324" lon="-1.39514">
        <ele>5.424561</ele>
        <time>2014-08-20T15:47:36Z</time>
      </trkpt>
      <trkpt lat="46.20318" lon="-1.39438">
        <ele>5.424561</ele>
        <time>2014-08-20T15:47:49Z</time>
      </trkpt>
      <trkpt lat="46.20288" lon="-1.39435">
        <ele>5.424561</ele>
        <time>2014-08-20T15:47:59Z</time>
      </trkpt>
      <trkpt lat="46.20289" lon="-1.39386">
        <ele>5.424561</ele>
        <time>2014-08-20T15:48:10Z</time>
      </trkpt>
      <trkpt lat="46.20298" lon="-1.39319">
        <ele>4.463257</ele>
        <time>2014-08-20T15:48:23Z</time>
      </trkpt>
      <trkpt lat="46.20307" lon="-1.39235">
        <ele>4.943848</ele>
        <time>2014-08-20T15:48:40Z</time>
      </trkpt>
      <trkpt lat="46.20314" lon="-1.39228">
        <ele>4.943848</ele>
        <time>2014-08-20T15:48:44Z</time>
      </trkpt>
      <trkpt lat="46.20343" lon="-1.39233">
        <ele>5.905273</ele>
        <time>2014-08-20T15:49:01Z</time>
      </trkpt>
      <trkpt lat="46.20342" lon="-1.39233">
        <ele>6.385864</ele>
        <time>2014-08-20T15:49:16Z</time>
      </trkpt>
      <trkpt lat="46.20342" lon="-1.39233">
        <ele>4.463257</ele>
        <time>2014-08-20T15:49:55Z</time>
      </trkpt>
      <trkpt lat="46.20343" lon="-1.39235">
        <ele>4.943848</ele>
        <time>2014-08-20T15:51:31Z</time>
      </trkpt>
      <trkpt lat="46.20343" lon="-1.39235">
        <ele>4.943848</ele>
        <time>2014-08-20T15:52:13Z</time>
      </trkpt>
      <trkpt lat="46.20343" lon="-1.39234">
        <ele>4.943848</ele>
        <time>2014-08-20T15:53:48Z</time>
      </trkpt>
      <trkpt lat="46.20343" lon="-1.39234">
        <ele>3.982666</ele>
        <time>2014-08-20T15:55:37Z</time>
      </trkpt>
      <trkpt lat="46.20345" lon="-1.39234">
        <ele>4.463257</ele>
        <time>2014-08-20T15:56:34Z</time>
      </trkpt>
      <trkpt lat="46.20342" lon="-1.39232">
        <ele>3.982666</ele>
        <time>2014-08-20T15:56:53Z</time>
      </trkpt>
      <trkpt lat="46.20342" lon="-1.39231">
        <ele>4.943848</ele>
        <time>2014-08-20T15:56:54Z</time>
      </trkpt>
      <trkpt lat="46.20344" lon="-1.39223">
        <ele>4.943848</ele>
        <time>2014-08-20T15:56:58Z</time>
      </trkpt>
      <trkpt lat="46.2035" lon="-1.39151">
        <ele>4.463257</ele>
        <time>2014-08-20T15:57:14Z</time>
      </trkpt>
      <trkpt lat="46.20357" lon="-1.39099">
        <ele>4.463257</ele>
        <time>2014-08-20T15:57:29Z</time>
      </trkpt>
      <trkpt lat="46.20365" lon="-1.39019">
        <ele>4.943848</ele>
        <time>2014-08-20T15:57:48Z</time>
      </trkpt>
      <trkpt lat="46.20386" lon="-1.38899">
        <ele>5.424561</ele>
        <time>2014-08-20T15:58:13Z</time>
      </trkpt>
      <trkpt lat="46.20391" lon="-1.38867">
        <ele>4.943848</ele>
        <time>2014-08-20T15:58:20Z</time>
      </trkpt>
      <trkpt lat="46.20381" lon="-1.38858">
        <ele>4.463257</ele>
        <time>2014-08-20T15:58:24Z</time>
      </trkpt>
      <trkpt lat="46.20358" lon="-1.38858">
        <ele>4.943848</ele>
        <time>2014-08-20T15:58:31Z</time>
      </trkpt>
      <trkpt lat="46.20354" lon="-1.38811">
        <ele>4.943848</ele>
        <time>2014-08-20T15:58:41Z</time>
      </trkpt>
      <trkpt lat="46.20361" lon="-1.38701">
        <ele>5.424561</ele>
        <time>2014-08-20T15:59:00Z</time>
      </trkpt>
      <trkpt lat="46.20363" lon="-1.38661">
        <ele>4.943848</ele>
        <time>2014-08-20T15:59:07Z</time>
      </trkpt>
      <trkpt lat="46.2038" lon="-1.38654">
        <ele>4.943848</ele>
        <time>2014-08-20T15:59:12Z</time>
      </trkpt>
      <trkpt lat="46.2041" lon="-1.38663">
        <ele>4.463257</ele>
        <time>2014-08-20T15:59:20Z</time>
      </trkpt>
      <trkpt lat="46.20416" lon="-1.38653">
        <ele>3.501953</ele>
        <time>2014-08-20T15:59:24Z</time>
      </trkpt>
      <trkpt lat="46.2043" lon="-1.38532">
        <ele>3.501953</ele>
        <time>2014-08-20T15:59:45Z</time>
      </trkpt>
      <trkpt lat="46.20451" lon="-1.38393">
        <ele>3.982666</ele>
        <time>2014-08-20T16:00:08Z</time>
      </trkpt>
      <trkpt lat="46.20467" lon="-1.38299">
        <ele>3.02124</ele>
        <time>2014-08-20T16:00:25Z</time>
      </trkpt>
      <trkpt lat="46.2046" lon="-1.38203">
        <ele>2.540649</ele>
        <time>2014-08-20T16:00:42Z</time>
      </trkpt>
      <trkpt lat="46.20459" lon="-1.38153">
        <ele>3.02124</ele>
        <time>2014-08-20T16:00:51Z</time>
      </trkpt>
      <trkpt lat="46.20464" lon="-1.38113">
        <ele>3.501953</ele>
        <time>2014-08-20T16:00:58Z</time>
      </trkpt>
      <trkpt lat="46.20461" lon="-1.38007">
        <ele>4.463257</ele>
        <time>2014-08-20T16:01:17Z</time>
      </trkpt>
      <trkpt lat="46.20447" lon="-1.37902">
        <ele>5.905273</ele>
        <time>2014-08-20T16:01:36Z</time>
      </trkpt>
      <trkpt lat="46.2046" lon="-1.37789">
        <ele>7.347168</ele>
        <time>2014-08-20T16:01:55Z</time>
      </trkpt>
      <trkpt lat="46.20461" lon="-1.37783">
        <ele>7.347168</ele>
        <time>2014-08-20T16:01:56Z</time>
      </trkpt>
      <trkpt lat="46.20456" lon="-1.37706">
        <ele>6.385864</ele>
        <time>2014-08-20T16:02:11Z</time>
      </trkpt>
      <trkpt lat="46.20453" lon="-1.37671">
        <ele>7.827881</ele>
        <time>2014-08-20T16:02:19Z</time>
      </trkpt>
      <trkpt lat="46.20444" lon="-1.37652">
        <ele>7.827881</ele>
        <time>2014-08-20T16:02:23Z</time>
      </trkpt>
      <trkpt lat="46.20374" lon="-1.37588">
        <ele>8.789185</ele>
        <time>2014-08-20T16:02:42Z</time>
      </trkpt>
      <trkpt lat="46.20308" lon="-1.37567">
        <ele>8.789185</ele>
        <time>2014-08-20T16:02:57Z</time>
      </trkpt>
      <trkpt lat="46.20241" lon="-1.37551">
        <ele>10.231201</ele>
        <time>2014-08-20T16:03:14Z</time>
      </trkpt>
      <trkpt lat="46.20198" lon="-1.37508">
        <ele>8.789185</ele>
        <time>2014-08-20T16:03:28Z</time>
      </trkpt>
      <trkpt lat="46.20163" lon="-1.37456">
        <ele>10.231201</ele>
        <time>2014-08-20T16:03:43Z</time>
      </trkpt>
      <trkpt lat="46.20148" lon="-1.37424">
        <ele>11.192505</ele>
        <time>2014-08-20T16:03:57Z</time>
      </trkpt>
      <trkpt lat="46.20178" lon="-1.37381">
        <ele>10.231201</ele>
        <time>2014-08-20T16:04:12Z</time>
      </trkpt>
      <trkpt lat="46.20219" lon="-1.37334">
        <ele>10.711792</ele>
        <time>2014-08-20T16:04:29Z</time>
      </trkpt>
      <trkpt lat="46.20263" lon="-1.37321">
        <ele>11.192505</ele>
        <time>2014-08-20T16:04:41Z</time>
      </trkpt>
      <trkpt lat="46.20267" lon="-1.37322">
        <ele>10.711792</ele>
        <time>2014-08-20T16:04:42Z</time>
      </trkpt>
      <trkpt lat="46.2033" lon="-1.37319">
        <ele>10.231201</ele>
        <time>2014-08-20T16:04:58Z</time>
      </trkpt>
      <trkpt lat="46.20395" lon="-1.37314">
        <ele>10.711792</ele>
        <time>2014-08-20T16:05:15Z</time>
      </trkpt>
      <trkpt lat="46.20442" lon="-1.37305">
        <ele>9.269897</ele>
        <time>2014-08-20T16:05:30Z</time>
      </trkpt>
      <trkpt lat="46.20448" lon="-1.37304">
        <ele>7.347168</ele>
        <time>2014-08-20T16:05:32Z</time>
      </trkpt>
      <trkpt lat="46.20452" lon="-1.37302">
        <ele>5.905273</ele>
        <time>2014-08-20T16:05:38Z</time>
      </trkpt>
      <trkpt lat="46.20452" lon="-1.37291">
        <ele>5.905273</ele>
        <time>2014-08-20T16:05:43Z</time>
      </trkpt>
      <trkpt lat="46.20476" lon="-1.37283">
        <ele>6.866455</ele>
        <time>2014-08-20T16:05:55Z</time>
      </trkpt>
      <trkpt lat="46.20516" lon="-1.37274">
        <ele>4.943848</ele>
        <time>2014-08-20T16:06:10Z</time>
      </trkpt>
      <trkpt lat="46.2055" lon="-1.37229">
        <ele>4.463257</ele>
        <time>2014-08-20T16:06:23Z</time>
      </trkpt>
      <trkpt lat="46.20564" lon="-1.37174">
        <ele>3.501953</ele>
        <time>2014-08-20T16:06:37Z</time>
      </trkpt>
      <trkpt lat="46.20563" lon="-1.37169">
        <ele>2.540649</ele>
        <time>2014-08-20T16:06:39Z</time>
      </trkpt>
      <trkpt lat="46.20568" lon="-1.37161">
        <ele>3.982666</ele>
        <time>2014-08-20T16:06:43Z</time>
      </trkpt>
      <trkpt lat="46.2057" lon="-1.37152">
        <ele>3.982666</ele>
        <time>2014-08-20T16:06:47Z</time>
      </trkpt>
      <trkpt lat="46.20577" lon="-1.371">
        <ele>3.982666</ele>
        <time>2014-08-20T16:07:02Z</time>
      </trkpt>
      <trkpt lat="46.20573" lon="-1.37081">
        <ele>3.982666</ele>
        <time>2014-08-20T16:07:13Z</time>
      </trkpt>
      <trkpt lat="46.20573" lon="-1.3708">
        <ele>3.982666</ele>
        <time>2014-08-20T16:07:16Z</time>
      </trkpt>
      <trkpt lat="46.20576" lon="-1.37074">
        <ele>3.982666</ele>
        <time>2014-08-20T16:07:29Z</time>
      </trkpt>
      <trkpt lat="46.20576" lon="-1.37074">
        <ele>4.943848</ele>
        <time>2014-08-20T16:07:49Z</time>
      </trkpt>
      <trkpt lat="46.20576" lon="-1.37076">
        <ele>3.02124</ele>
        <time>2014-08-20T16:08:02Z</time>
      </trkpt>
      <trkpt lat="46.20575" lon="-1.37077">
        <ele>3.982666</ele>
        <time>2014-08-20T16:08:18Z</time>
      </trkpt>
      <trkpt lat="46.20573" lon="-1.37075">
        <ele>3.501953</ele>
        <time>2014-08-20T16:08:32Z</time>
      </trkpt>
      <trkpt lat="46.20574" lon="-1.37075">
        <ele>3.501953</ele>
        <time>2014-08-20T16:08:49Z</time>
      </trkpt>
      <trkpt lat="46.20573" lon="-1.37075">
        <ele>2.540649</ele>
        <time>2014-08-20T16:09:13Z</time>
      </trkpt>
      <trkpt lat="46.20574" lon="-1.37075">
        <ele>4.463257</ele>
        <time>2014-08-20T16:09:41Z</time>
      </trkpt>
      <trkpt lat="46.20574" lon="-1.37075">
        <ele>3.501953</ele>
        <time>2014-08-20T16:10:17Z</time>
      </trkpt>
    </trkseg>
  </trk>
</gpx>